Regional Weather Roundup
Issued by NWS

Home | Current Version | Previous Version | Graphics & Text | Print | Product List | Glossary On
Versions: 1 2 3 4 5 6 7 8 9 10 11 12 13 14 15 16 17 18 19 20 21 22 23 24 25 26 27 28 29 30 31 32 33 34 35 36 37 38 39 40 41 42 43 44 45 46 47 48 49 50
000
ASUS43 KTOP 202059
RWRKS

WEATHER ROUNDUP FOR KANSAS
NATIONAL WEATHER SERVICE GOODLAND KS
300 PM CST MON NOV 20 2017

NOTE:  "FAIR" INDICATES FEW OR NO CLOUDS BELOW 12,000 FEET WITH NO
SIGNIFICANT WEATHER AND/OR OBSTRUCTIONS TO VISIBILITY.

KSZ001>006-013>018-027>032-041>047-202200-
NORTHWEST KANSAS

CITY           SKY/WX    TMP DP  RH WIND       PRES   REMARKS
GOODLAND       CLOUDY    73  -2   5 W13       29.71F
HAYS           SUNNY     70  24  17 S13       29.68F
HILL CITY      CLOUDY    74  14  10 SW14      29.67S
RUSSELL        CLOUDY    69  24  18 S17       29.67F
$$

KSZ061>065-074>080-084>089-202200-
SOUTHWEST KANSAS

CITY           SKY/WX    TMP DP  RH WIND       PRES   REMARKS
DODGE CITY     SUNNY     67  20  16 SW14      29.75F
GARDEN CITY    SUNNY     68   9  10 SW10      29.75F
GREAT BEND     CLOUDY    66  23  19 SW16G23   29.72F
LIBERAL        CLOUDY    65  17  15 S9        29.78F
$$

KSZ066>073-081>083-090>101-202200-
SOUTHEAST KANSAS

CITY           SKY/WX    TMP DP  RH WIND       PRES   REMARKS
CHANUTE        SUNNY     63  26  24 SW24G33   29.85F
COFFEYVILLE    SUNNY     63  29  27 S23G29    29.88F
HUTCHINSON     SUNNY     63  23  21 S21G28    29.74F
MEDICINE LODGE   N/A     67  21  17 S16G26    29.76F
NEWTON         SUNNY     62  24  23 SW30G37   29.75F
PARSONS        SUNNY     63  28  26 S21G26    29.87F
WICHITA INTL   MOSUNNY   63  26  24 S25G33    29.78F
WICHITA JABRA  SUNNY     63  25  23 S26G38    29.77F
WICHITA MCCONL SUNNY     64  24  22 SW25G35   29.79F
WINFIELD       CLOUDY    63  27  25 SW26G35   29.84F
$$

KSZ007>012-019>026-033>040-048>060-102>105-202200-
NORTHEAST KANSAS

CITY           SKY/WX    TMP DP  RH WIND       PRES   REMARKS
CONCORDIA      CLOUDY    60  24  25 SW13      29.68F
EMPORIA        CLOUDY    62  27  26 S29G39    29.76F
LAWRENCE       SUNNY     63  27  25 S23G31    29.76F
MANHATTAN      CLOUDY    63  26  24 SW18G31   29.69F
OLATHE IND     SUNNY     61  27  27 SW26G38   29.77F
OLATHE EXE     SUNNY     59  28  30 S20G36    29.77F
SALINA         CLOUDY    66  26  22 SW22G28   29.70F
TOPEKA BILLARD SUNNY     63  26  24 SW16G30   29.73F
TOPEKA FORBES  SUNNY     63  27  25 S24G30    29.72F
$$




USA.gov is the U.S. government's official web portal to all federal, state and local government web resources and services.